Find Starlink 3245

NORAD ID: 50170 Int'l Des: 2021-125 Owner: SPXS Country: US Constellation: starlink operational
LEOCIRCULAR

現在のビュー

3D地球を読み込み中...

About Starlink 3245

Starlink 3245 (NORAD 50170) is a starlink constellation satellite (v1.5) launched Dec 18, 2021 by SPXS of US. It operates in LEO, CIRCULAR orbit with a mass of 290.00 kg.

次回通過

Passes for default location (London). Set your location on the main map for personalized predictions.

高度履歴

Loading altitude history...

軌道要素

1 50170U 21125Q 26264.80005803 -.00001147 00000-0 -25189-4 0 9992
2 50170 53.1603 75.7466 0001096 80.9997 279.1129 15.31700906266373
Epoch: Sep 21, 2026 • Age: 19 hours

現在のステータス

高度 470.9 km
遠地点 / 近地点 N/A
速度 7.63 km/s
衛星直下点 21.34°N, 124.1°W
打ち上げ日 Dec 18, 2021
運用期間 4.7 years
タイプ internet

技術仕様

分類 Payload
質量 290.00 kg
乾燥質量 270.00 kg
長さ 0.20 m
スパン 9.00 m
形状 ? Box + pan
製造者 SPXS
バスタイプ Starlink
フェーズステータス In Orbit
所有者/国 SPXS/US

Most Searched